FW1564 Weather Reports


time (UTC)temp
C
wind
direction
speed
KPH
gust
KPH
rain 1hr
cm
rain 24hr
cm
rain mn
cm
humidity
%
barometer
mb
20260831014615 17 345 4.8 6.4 0.00 0.00 0.00 87 1021.6
20260831013122 18 353 4.8 6.4 0.00 0.00 0.00 86 1021.5
20260831012123 18 355 3.2 6.4 0.00 0.00 0.00 86 1021.5
20260831011125 18 338 4.8 9.7 0.00 0.00 0.00 86 1021.8
20260831010121 18 336 6.4 9.7 0.00 0.00 0.00 86 1021.9
20260831005122 18 343 6.4 9.7 0.00 0.00 0.00 86 1022.0
20260831004122 18 348 3.2 6.4 0.00 0.00 0.00 85 1021.9
20260831003122 18 342 3.2 6.4 0.00 0.00 0.00 85 1021.9
20260831002122 18 340 4.8 9.7 0.00 0.00 0.00 84 1021.9
20260831001124 18 349 3.2 6.4 0.00 0.00 0.00 84 1022.0
20260831000121 18 336 4.8 6.4 0.00 0.00 0.00 86 1022.0
20260830235121 18 341 3.2 6.4 0.00 0.00 0.00 85 1022.1
20260830234123 18 332 0.0 6.4 0.00 0.00 0.00 84 1021.8
20260830234036 18 332 6.4 9.7 0.00 0.00 0.00 86 1021.7
20260830232114 18 343 4.8 9.7 0.00 0.00 0.00 85 1022.0
20260830231114 18 341 6.4 6.4 0.00 0.00 0.00 85 1021.7
20260830230113 18 352 6.4 9.7 0.00 0.00 0.00 85 1021.7
20260830230036 18 342 3.2 6.4 0.00 0.00 0.00 86 1021.7
20260830224114 18 333 3.2 6.4 0.00 0.00 0.00 86 1022.0
20260830223112 18 359 3.2 4.8 0.00 0.00 0.00 86 1022.0
20260830222114 18 345 1.6 9.7 0.00 0.00 0.00 86 1021.8
20260830221547 18 346 3.2 4.8 0.00 0.00 0.00 87 1022.1
20260830220112 18 338 3.2 4.8 0.00 0.00 0.00 86 1021.8
20260830215112 18 341 3.2 9.7 0.00 0.00 0.00 86 1021.6
20260830214112 18 16 4.8 9.7 0.00 0.00 0.00 86 1021.9
20260830213600 18 339 4.8 6.4 0.00 0.00 0.00 86 1021.8
20260830212112 18 343 3.2 4.8 0.00 0.00 0.00 86 1021.7
20260830211112 18 6 1.6 11.3 0.00 0.00 0.00 86 1021.6
20260830210053 18 337 4.8 4.8 0.00 0.00 0.00 87 1021.3
20260830205532 18 335 3.2 6.4 0.00 0.00 0.00 87 1021.5
20260830204054 18 347 4.8 6.4 0.00 0.00 0.00 87 1021.3
20260830203054 19 348 3.2 3.2 0.00 0.00 0.00 86 1021.2
20260830202053 19 330 1.6 3.2 0.00 0.00 0.00 86 1021.0
20260830201531 19 148 0.0 1.6 0.00 0.00 0.00 84 1020.9
20260830200054 20 132 0.0 3.2 0.00 0.00 0.00 84 1020.9
20260830195108 20 129 3.2 3.2 0.00 0.00 0.00 84 1020.7
20260830194053 20 142 3.2 4.8 0.00 0.00 0.00 84 1020.7
20260830193531 20 137 4.8 4.8 0.00 0.00 0.00 83 1021.0
20260830192053 20 106 3.2 4.8 0.00 0.00 0.00 83 1020.7
20260830191053 20 118 1.6 6.4 0.00 0.00 0.00 82 1020.8
20260830190530 20 132 3.2 4.8 0.00 0.00 0.00 82 1020.8
20260830185053 20 153 3.2 6.4 0.00 0.00 0.00 81 1020.8
20260830184053 20 139 1.6 6.4 0.00 0.00 0.00 81 1021.0
20260830183047 21 130 1.6 6.4 0.00 0.00 0.00 80 1020.9
20260830182046 21 145 4.8 6.4 0.00 0.00 0.00 80 1020.6
20260830181046 21 156 3.2 9.7 0.00 0.00 0.00 80 1020.6
20260830180048 21 104 8.0 11.3 0.00 0.00 0.00 79 1020.7
20260830175046 21 147 1.6 9.7 0.00 0.00 0.00 79 1020.8
20260830174046 21 173 1.6 9.7 0.00 0.00 0.00 79 1020.7
20260830173035 21 120 3.2 11.3 0.00 0.00 0.00 78 1020.6
20260830172034 21 84 3.2 12.9 0.00 0.00 0.00 78 1020.5
20260830171034 21 103 9.7 12.9 0.00 0.00 0.00 77 1020.4
20260830170035 22 155 6.4 12.9 0.00 0.00 0.00 76 1020.7
20260830165035 22 217 6.4 12.9 0.00 0.00 0.00 75 1020.6
20260830164514 23 142 4.8 14.5 0.00 0.00 0.00 72 1020.5
20260830163034 23 154 11.3 12.9 0.00 0.00 0.00 72 1020.5
20260830162037 23 102 9.7 12.9 0.00 0.00 0.00 70 1020.6
20260830161018 23 210 3.2 14.5 0.00 0.00 0.00 71 1020.3
20260830160019 23 186 1.6 14.5 0.00 0.00 0.00 70 1020.5
20260830155025 23 125 6.4 12.9 0.00 0.00 0.00 70 1020.5
20260830154024 23 143 8.0 12.9 0.00 0.00 0.00 67 1020.7
20260830153019 23 130 3.2 11.3 0.00 0.00 0.00 69 1020.6
20260830152018 23 137 4.8 14.5 0.00 0.00 0.00 70 1020.8
20260830151029 23 131 8.0 14.5 0.00 0.00 0.00 68 1020.8
20260830150019 23 98 8.0 12.9 0.00 0.00 0.00 68 1021.1
20260830145017 23 201 8.0 12.9 0.00 0.00 0.00 69 1021.0
20260830144022 23 183 11.3 16.1 0.00 0.00 0.00 68 1021.1
20260830143507 23 127 9.7 14.5 0.00 0.00 0.00 68 1021.2
20260830142023 23 133 6.4 16.1 0.00 0.00 0.00 69 1021.0
20260830141023 23 112 6.4 16.1 0.00 0.00 0.00 69 1021.2
20260830140028 23 130 11.3 16.1 0.00 0.00 0.00 69 1021.5
20260830135026 23 139 1.6 14.5 0.00 0.00 0.00 70 1021.2
20260830134450 23 141 8.0 16.1 0.00 0.00 0.00 69 1021.1
20260830133008 23 61 3.2 16.1 0.00 0.00 0.00 69 1021.1
20260830132009 23 135 8.0 16.1 0.00 0.00 0.00 69 1021.1
20260830131008 23 116 6.4 17.7 0.00 0.00 0.00 70 1021.3
20260830130455 23 149 6.4 16.1 0.00 0.00 0.00 70 1021.2
20260830125009 23 187 4.8 14.5 0.00 0.00 0.00 70 1021.5
20260830124008 23 157 6.4 14.5 0.00 0.00 0.00 71 1021.5
20260830123008 22 146 12.9 14.5 0.00 0.00 0.00 70 1021.6
20260830122450 22 134 8.0 16.1 0.00 0.00 0.00 71 1021.6
20260830121008 22 99 8.0 14.5 0.00 0.00 0.00 72 1021.8
20260830120022 21 244 4.8 12.9 0.00 0.00 0.00 75 1022.1
20260830115010 22 106 4.8 14.5 0.00 0.00 0.00 75 1022.0
20260830114009 21 138 3.2 14.5 0.00 0.00 0.00 76 1021.8
20260830113009 22 142 8.0 12.9 0.00 0.00 0.00 74 1022.1
20260830112002 22 98 6.4 16.1 0.00 0.00 0.00 72 1022.1
20260830111003 22 121 8.0 17.7 0.00 0.00 0.00 71 1021.7
20260830110442 22 57 1.6 16.1 0.00 0.00 0.00 72 1021.9
20260830105548 22 160 6.4 12.9 0.00 0.00 0.00 73 1021.9
20260830105425 22 160 4.8 12.9 0.00 0.00 0.00 73 1021.9
20260830103002 21 106 3.2 14.5 0.00 0.00 0.00 74 1021.8
20260830102001 22 225 9.7 12.9 0.00 0.00 0.00 73 1021.8
20260830101001 22 191 8.0 14.5 0.00 0.00 0.00 71 1021.6
20260830100000 22 128 8.0 12.9 0.00 0.00 0.00 72 1021.6
20260830095001 22 106 3.2 11.3 0.00 0.00 0.00 73 1021.2
20260830094001 22 120 4.8 11.3 0.00 0.00 0.00 72 1021.1
20260830093001 21 314 1.6 11.3 0.00 0.00 0.00 75 1021.2
20260830092001 21 124 4.8 11.3 0.00 0.00 0.00 76 1021.2
20260830091001 20 124 3.2 9.7 0.00 0.00 0.00 79 1021.1
20260830090001 20 101 3.2 9.7 0.00 0.00 0.00 78 1021.2
20260830085001 20 116 3.2 4.8 0.00 0.00 0.00 77 1021.2
20260830084000 18 48 3.2 3.2 0.00 0.00 0.00 80 1021.3
20260830083000 17 359 0.0 6.4 0.00 0.00 0.00 81 1021.1
20260830081959 17 25 3.2 6.4 0.00 0.00 0.00 78 1021.1
20260830081000 17 9 6.4 9.7 0.00 0.00 0.00 78 1021.0
20260830080000 17 21 6.4 9.7 0.00 0.00 0.00 79 1020.7
20260830075000 17 354 6.4 11.3 0.00 0.00 0.00 81 1020.8
20260830074000 17 340 4.8 6.4 0.00 0.00 0.00 82 1020.8
20260830073000 17 347 6.4 11.3 0.00 0.00 0.00 82 1020.8
20260830072000 17 351 6.4 11.3 0.00 0.00 0.00 82 1020.4
20260830071000 17 335 8.0 12.9 0.00 0.00 0.00 82 1020.4
20260830070000 17 339 9.7 11.3 0.00 0.00 0.00 83 1020.4
20260830065000 17 0 6.4 11.3 0.00 0.00 0.00 82 1020.2
20260830064000 17 350 8.0 11.3 0.00 0.00 0.00 82 1020.4
20260830063437 16 350 4.8 11.3 0.00 0.00 0.00 81 1020.2
20260830062439 17 340 6.4 11.3 0.00 0.00 0.00 81 1020.2
20260830060953 17 319 6.4 11.3 0.00 0.00 0.00 82 1020.1
20260830060445 17 358 6.4 12.9 0.00 0.00 0.00 82 1020.0
20260830055905 17 355 6.4 9.7 0.00 0.00 0.00 82 1019.9
20260830053953 17 21 4.8 9.7 0.00 0.00 0.00 82 1020.2
20260830052953 17 329 6.4 9.7 0.00 0.00 0.00 82 1020.1
20260830051953 17 3 6.4 11.3 0.00 0.00 0.00 82 1020.0
20260830050953 17 356 4.8 9.7 0.00 0.00 0.00 83 1020.0
20260830045952 17 350 6.4 9.7 0.00 0.00 0.00 81 1020.1
20260830044952 17 12 6.4 11.3 0.00 0.00 0.00 80 1019.9
20260830043952 17 326 6.4 11.3 0.00 0.00 0.00 78 1020.0
20260830042953 17 341 6.4 11.3 0.00 0.00 0.00 77 1020.0
20260830041953 17 348 6.4 12.9 0.00 0.00 0.00 76 1020.0
20260830040951 17 339 6.4 11.3 0.00 0.00 0.00 75 1020.2
20260830035952 17 320 6.4 11.3 0.00 0.00 0.00 75 1020.1
20260830034952 17 4 4.8 11.3 0.00 0.00 0.00 74 1020.5
20260830033951 17 337 6.4 9.7 0.00 0.00 0.00 74 1020.4
20260830032952 17 327 8.0 11.3 0.00 0.00 0.00 75 1020.4
20260830031952 17 16 4.8 11.3 0.00 0.00 0.00 78 1020.3
20260830030952 16 344 6.4 9.7 0.00 0.00 0.00 81 1020.3
20260830030913 16 346 6.4 9.7 0.00 0.00 0.00 80 1020.5
20260830024952 16 351 6.4 9.7 0.00 0.00 0.00 79 1020.6
20260830023951 17 323 6.4 11.3 0.00 0.00 0.00 80 1020.6
20260830022951 17 343 6.4 9.7 0.00 0.00 0.00 80 1020.7
20260830021952 17 333 6.4 9.7 0.00 0.00 0.00 80 1020.5
20260830020952 17 344 8.0 11.3 0.00 0.00 0.00 79 1020.6
20260830015952 17 336 6.4 11.3 0.00 0.00 0.00 79 1020.9
20260830015432 16 4 6.4 9.7 0.00 0.00 0.00 80 1020.9